Location: Ca�n Batista
(41.4099°N, 1.7752°E)
Time: 13:32:48
(UTC+00:00)

Cosmos 2219 Rocket - Pass Details

Date: 03 March 2021
Orbit: 826 x 848 km, 71.0° (Epoch: 21 April)

Event Time Altitude Azimuth Distance (km) Brightness Sun altitude
Rises 19:21:13 0° 187° (S) 3,349 5.3 -18.6°
Reaches altitude 10° 19:23:41 10° 183° (S) 2,421 4.5 -19.1°
Maximum altitude 19:29:02 52° 108° (ESE) 1,026 2.2 -20.1°
Drops below altitude 10° 19:34:26 10° 33° (NNE) 2,446 4.4 -21.1°
Sets 19:36:56 0° 29° (NNE) 3,387 5.2 -21.5°
